TimeMDT,TemperatureF,Dew PointF,Humidity,Sea Level PressureIn,VisibilityMPH,Wind Direction,Wind SpeedMPH,Gust SpeedMPH,PrecipitationIn,Events,Conditions,WindDirDegrees,DateUTC
12:53 AM,37.0,25.0,62,29.79,10.0,South,9.2,-,N/A,,Clear,180,2013-10-09 06:53:00
1:53 AM,37.9,26.1,62,29.79,10.0,South,8.1,-,N/A,,Clear,180,2013-10-09 07:53:00
2:53 AM,39.0,26.1,60,29.78,10.0,SSW,9.2,-,N/A,,Clear,200,2013-10-09 08:53:00
3:53 AM,39.0,26.1,60,29.78,10.0,SW,4.6,-,N/A,,Clear,220,2013-10-09 09:53:00
4:53 AM,39.9,28.9,65,29.78,10.0,SW,8.1,-,N/A,,Overcast,230,2013-10-09 10:53:00
5:53 AM,34.0,26.1,73,29.80,10.0,WSW,4.6,-,N/A,,Clear,250,2013-10-09 11:53:00
6:33 AM,35.6,28.4,75,29.85,10.0,SSW,5.8,-,N/A,,Mostly Cloudy,200,2013-10-09 12:33:00
6:53 AM,36.0,28.9,76,29.81,10.0,South,6.9,-,N/A,,Mostly Cloudy,190,2013-10-09 12:53:00
7:00 AM,37.4,28.4,70,29.84,10.0,SSW,4.6,-,N/A,,Partly Cloudy,200,2013-10-09 13:00:00
7:53 AM,37.0,30.0,76,29.82,10.0,South,4.6,-,N/A,,Mostly Cloudy,190,2013-10-09 13:53:00
8:53 AM,39.9,32.0,73,29.83,10.0,SSW,4.6,-,N/A,,Mostly Cloudy,200,2013-10-09 14:53:00
9:53 AM,42.1,33.1,70,29.83,10.0,SW,3.5,-,N/A,,Clear,230,2013-10-09 15:53:00
10:53 AM,45.0,33.1,63,29.83,10.0,Calm,Calm,-,N/A,,Clear,0,2013-10-09 16:53:00
11:53 AM,48.0,32.0,54,29.81,10.0,Variable,3.5,-,N/A,,Clear,0,2013-10-09 17:53:00
12:53 PM,50.0,35.1,57,29.80,10.0,NW,6.9,-,N/A,,Clear,320,2013-10-09 18:53:00
1:53 PM,52.0,34.0,50,29.77,10.0,Variable,4.6,-,N/A,,Clear,0,2013-10-09 19:53:00
2:53 PM,53.1,34.0,48,29.74,10.0,North,9.2,-,N/A,,Clear,350,2013-10-09 20:53:00
3:53 PM,54.0,35.1,49,29.72,10.0,NNW,9.2,-,N/A,,Clear,330,2013-10-09 21:53:00
4:53 PM,54.0,34.0,47,29.72,10.0,NNW,8.1,-,N/A,,Clear,330,2013-10-09 22:53:00
5:53 PM,52.0,34.0,50,29.73,10.0,WNW,8.1,-,N/A,,Clear,300,2013-10-09 23:53:00
6:53 PM,51.1,33.1,50,29.74,10.0,West,4.6,-,N/A,,Clear,260,2013-10-10 00:53:00
7:53 PM,46.9,32.0,56,29.76,10.0,SSW,4.6,-,N/A,,Clear,200,2013-10-10 01:53:00
8:53 PM,48.0,32.0,54,29.76,10.0,South,8.1,-,N/A,,Clear,180,2013-10-10 02:53:00
9:53 PM,48.0,32.0,54,29.77,10.0,South,9.2,-,N/A,,Clear,190,2013-10-10 03:53:00
10:53 PM,46.0,30.9,56,29.76,10.0,South,9.2,-,N/A,,Clear,190,2013-10-10 04:53:00
11:53 PM,44.1,30.0,58,29.76,10.0,South,9.2,-,N/A,,Clear,190,2013-10-10 05:53:00